This is the latest recevied weather packets stored in our database for station/object IU5JAE-13. If no packets are shown the sender has not sent any weather packets the latest 1 day(s).
| Time | Temp. | Humidity | Pressure | Rain* | Wind** | Luminosity | Snow |
|---|---|---|---|---|---|---|---|
| 1836274697 | 18.89° C | 76% | 1025.9 hPa | 0 mm | 0 m/s | 0 W/m² | - |
| 1836274550 | 18.33° C | 81% | 1025.8 hPa | 0 mm | 0 m/s | 0 W/m² | - |
| 1836274094 | 19.44° C | 75% | 1025.8 hPa | 0 mm | 0.45 m/s, 205° | 0 W/m² | - |
| 1778014534 | 13.89° C | 99% | 1012.6 hPa | 1.02 mm | 1.34 m/s, 168° | 0 W/m² | - |
| 1778013931 | 14.44° C | 99% | 1012.7 hPa | 0.25 mm | 0.89 m/s, 176° | 0 W/m² | - |
| 1778013329 | 13.89° C | 98% | 1012.9 hPa | 0.51 mm | 0.45 m/s, 86° | 0 W/m² | - |
| 1778012726 | 14.44° C | 98% | 1012.7 hPa | 0.51 mm | 0 m/s | 0 W/m² | - |
| 1778012124 | 14.44° C | 98% | 1012.7 hPa | 0.76 mm | 0.89 m/s, 83° | 0 W/m² | - |
| 1778011522 | 14.44° C | 98% | 1012.8 hPa | 1.02 mm | 0 m/s | 0 W/m² | - |
| 1778010919 | 14.44° C | 98% | 1013 hPa | 1.02 mm | 0.45 m/s, 190° | 0 W/m² | - |
| 1778009735 | 14.44° C | 98% | 1012.7 hPa | 0.76 mm | 0 m/s | 0 W/m² | - |
| 1778009132 | 14.44° C | 98% | 1012.5 hPa | 0.76 mm | 0 m/s | 0 W/m² | - |
| 1778008530 | 14.44° C | 97% | 1012.6 hPa | 0.51 mm | 0 m/s | 0 W/m² | - |
| 1778007936 | 14.44° C | 97% | 1012.6 hPa | 0 mm | 0 m/s | 0 W/m² | - |
| 1778007325 | 13.89° C | 97% | 1012.5 hPa | 0 mm | 0 m/s | 0 W/m² | - |
| 1778006723 | 14.44° C | 96% | 1012.5 hPa | 0 mm | 0 m/s | 0 W/m² | - |
| 1778004915 | 14.44° C | 96% | 1012.4 hPa | 0 mm | 0.45 m/s, 71° | 6 W/m² | - |
| 1778004333 | 14.44° C | 97% | 1012.5 hPa | 0 mm | 0.45 m/s, 164° | 5 W/m² | - |
| 1778003731 | 14.44° C | 96% | 1012.4 hPa | 0 mm | 0.45 m/s, 184° | 6 W/m² | - |
| 1778003128 | 15° C | 96% | 1012.5 hPa | 0 mm | 0.45 m/s, 110° | 14 W/m² | - |
| 1778002526 | 15° C | 96% | 1012.5 hPa | 0 mm | 0 m/s | 19 W/m² | - |
| 1778001923 | 15° C | 95% | 1012.5 hPa | 0 mm | 0.89 m/s, 171° | 16 W/m² | - |
| 1778001321 | 15° C | 95% | 1012.5 hPa | 0 mm | 2.24 m/s, 176° | 29 W/m² | - |
| 1778000719 | 15.56° C | 94% | 1012.4 hPa | 0 mm | 0.89 m/s, 147° | 22 W/m² | - |
| 1778000116 | 15.56° C | 94% | 1012.5 hPa | 0 mm | 0.45 m/s, 160° | 47 W/m² | - |
* Rain latest hour (hover to see other rain measurements)
** Current wind speed in m/s (hover to see current wind gust speed)